Location: Alpha Ridge Park
(39.3209°N, 76.9128°W)
Time: 05:10:37
(UTC-04:00)

Transit 2A - Pass Details

Date: 24 May 2019
Orbit: 593 x 966 km, 66.7° (Epoch: 23 June)

Event Time Altitude Azimuth Distance (km) Brightness Sun altitude
Rises 16:21:33 0° 337° (NNW) 3,564 9.6 44.2°
Reaches altitude 10° 16:24:26 10° 347° (NNW) 2,570 8.9 43.7°
Maximum altitude 16:29:47 34° 51° (NE) 1,362 7.3 42.6°
Drops below altitude 10° 16:34:40 10° 115° (ESE) 2,337 8.2 41.7°
Sets 16:37:10 0° 125° (SE) 3,198 8.9 41.2°
